Tracking 19570 objects as of 22-Feb-2019
HD Live streaming from Space Station
objects crossing your sky now

ST5-B

Track ST5-B now!
10-day predictions
ST5-B is classified as:


NORAD ID: 28981
Int'l Code: 2006-008B
Perigee: 271.6 km
Apogee: 2,764.8 km
Inclination: 105.5 °
Period: 116.2 minutes
Semi major axis: 7889 km
RCS: 0.3032 m2 (medium)
Launch date: March 22, 2006
Source: United States (US)
Launch site: Pegasus launched from Western Range Air Space (WRAS)
aabbcc
Your satellite tracking list
Your tracking list is empty




NASA's NSSDC Master Catalog

Two Line Element Set (TLE):
1 28981U 06008B   19052.42785760  .00011180  35394-5  23971-3 0  9993
2 28981 105.4696 349.4354 1580188 284.1555  58.9498 12.38950582534002
Source of the keplerian elements: AFSPC